Date,TemperatureHighF,TemperatureAvgF,TemperatureLowF,DewpointHighF,DewpointAvgF,DewpointLowF,HumidityHigh,HumidityAvg,HumidityLow,PressureMaxIn,PressureMinIn,WindSpeedMaxMPH,WindSpeedAvgMPH,GustSpeedMaxMPH,PrecipitationSumIn
2013-1-11,39.6,38.1,36.0,37.7,36.3,34.1,93,93,93,29.40,29.35,7,4,15,0.02
2013-1-12,35.9,22.1,3.5,34.1,17.9,-2.7,93,84,74,30.12,29.37,7,2,15,0.01
2013-1-13,7.7,5.7,3.8,0.8,-0.8,-2.4,79,74,71,30.30,30.17,5,2,15,0.00
2013-1-14,11.6,8.8,6.7,3.7,1.2,-0.3,77,71,65,30.49,30.39,3,1,15,0.00
2013-1-15,26.8,22.1,16.2,16.6,13.0,9.7,75,68,64,30.26,30.07,6,4,15,0.00
2013-1-19,15.0,8.6,3.7,5.4,-0.3,-4.8,71,66,62,30.19,29.96,12,9,27,0.00
2013-1-20,6.8,5.2,1.2,-0.3,-3.1,-7.8,75,68,60,30.43,30.36,7,4,27,0.00
2013-1-21,-3.9,-6.0,-8.4,-13.9,-15.1,-17.6,70,64,58,30.45,30.38,6,4,27,0.00
2013-1-22,2.6,-2.2,-7.7,-5.0,-11.7,-17.0,70,63,60,30.52,30.35,3,1,15,0.00
2013-1-23,15.4,9.6,-1.2,6.5,-1.2,-14.0,75,61,51,30.58,30.26,9,6,21,0.00
2013-1-24,8.9,2.8,-3.7,-1.8,-7.5,-12.8,64,61,59,30.72,30.33,6,3,15,0.00
2013-1-25,16.8,11.1,2.7,9.9,1.4,-5.0,75,65,57,30.36,30.01,10,4,25,0.00
2013-1-26,18.8,12.2,3.3,5.4,2.3,-2.7,76,65,54,30.42,30.29,6,3,13,0.00
2013-1-27,32.7,30.5,28.7,28.0,26.4,21.4,91,85,65,29.98,29.83,5,1,13,0.00
2013-1-28,34.4,33.6,31.6,32.0,31.2,29.5,92,91,90,29.91,29.83,4,1,13,0.21
2013-1-29,34.8,31.6,27.2,31.8,26.4,21.3,93,81,77,29.78,29.61,7,4,16,0.06
2013-1-30,15.9,14.1,9.5,8.4,6.5,2.3,73,71,69,29.78,29.70,10,7,19,0.00
2013-1-31,2.9,-0.1,-8.6,-5.7,-8.6,-16.6,70,67,63,30.35,30.06,10,6,20,0.00
2013-2-1,2.0,-0.4,-5.6,-2.8,-7.6,-16.2,80,71,56,30.37,30.16,3,1,13,0.00
2013-2-2,9.6,6.7,4.9,2.9,-2.3,-5.0,81,66,61,30.27,30.06,3,0,5,0.00
2013-2-3,14.0,12.4,9.9,5.6,4.1,2.1,81,69,61,30.13,30.04,2,1,7,0.00
2013-2-4,14.1,10.0,4.1,10.2,0.2,-4.5,84,64,57,30.15,29.79,6,1,13,0.00
2013-2-5,28.1,25.7,21.5,22.0,17.1,10.7,79,70,61,30.03,29.85,6,3,12,0.06
2013-2-6,12.7,9.7,8.7,7.7,5.1,4.3,82,81,80,30.14,30.12,3,0,4,0.00
2013-2-8,26.1,21.8,18.5,16.6,14.8,12.5,81,74,66,30.41,30.27,6,3,11,0.01
2013-2-9,31.2,29.5,28.0,27.2,24.8,23.2,85,82,81,30.12,29.97,6,5,14,0.00
2013-2-10,29.2,28.7,28.5,26.7,26.1,25.9,91,90,90,29.52,29.46,3,3,11,0.00
2013-2-12,33.2,33.2,33.2,21.6,21.6,21.6,62,62,62,29.88,29.88,3,3,7,0.01
2013-2-14,28.1,19.4,10.5,18.3,7.4,1.7,69,59,51,30.22,29.96,6,3,0,0.08
2013-2-15,17.8,9.0,0.5,4.4,0.5,-5.0,80,68,53,30.36,30.22,4,2,0,0.00
2013-2-16,18.0,6.4,-1.6,6.2,-0.1,-6.3,83,75,59,30.33,30.17,2,0,0,0.00
2013-2-17,31.9,16.3,4.4,21.4,9.3,0.4,83,74,62,30.17,29.78,20,4,20,0.01
2013-2-18,32.4,17.6,6.9,28.6,10.7,0.6,86,74,68,29.83,29.57,24,7,24,0.00
2013-2-19,7.0,3.9,-1.8,-4.6,-6.4,-10.3,68,62,57,30.44,30.14,22,5,22,0.00
2013-2-20,14.4,10.9,6.3,1.7,-0.6,-4.2,69,59,52,30.56,30.48,9,0,9,0.00
2013-2-21,21.7,20.1,16.9,11.2,9.1,5.9,68,62,56,30.46,30.23,13,2,13,0.00
2013-2-22,24.5,23.7,22.8,18.9,18.5,18.1,83,80,79,29.93,29.91,7,0,7,0.01
2013-2-23,34.7,31.8,27.0,24.0,22.9,19.5,76,69,63,29.90,29.88,8,0,8,0.09
2013-2-24,34.2,29.9,21.1,22.7,20.4,16.5,82,68,59,30.14,30.10,5,0,5,0.03
2013-2-25,36.6,34.6,21.6,23.4,22.2,16.4,80,61,57,30.14,30.09,4,0,4,0.00
2013-2-26,30.9,27.7,22.4,25.8,22.9,19.4,89,82,73,30.06,29.93,13,2,13,0.00
2013-2-27,40.2,35.6,27.5,26.1,24.0,21.5,79,63,52,30.03,29.91,19,3,19,0.00
2013-2-28,29.6,28.5,27.4,20.2,18.8,17.1,68,67,65,30.22,30.19,15,3,15,0.00
2013-3-1,27.2,24.2,19.7,22.3,17.8,14.8,82,76,65,30.40,30.36,12,2,12,0.02
2013-3-2,28.7,25.7,23.3,21.3,19.6,18.3,84,78,69,30.35,30.25,3,0,3,0.03
2013-3-3,30.1,26.6,23.2,17.4,15.8,14.2,74,64,56,30.04,30.01,12,2,12,0.01
2013-3-4,24.7,23.6,22.7,20.4,19.1,17.3,88,83,74,30.07,29.98,15,3,15,0.00
2013-3-5,28.8,25.8,20.4,24.3,21.6,16.6,88,84,80,30.34,30.03,11,2,11,0.10
2013-3-6,26.6,24.9,23.1,20.0,18.4,17.3,79,76,73,30.45,30.43,9,1,9,0.00
2013-3-7,31.2,30.1,26.1,20.1,19.4,17.4,70,64,62,30.42,30.36,13,4,13,0.09
2013-3-8,36.4,32.6,20.4,29.2,25.6,17.1,87,75,71,30.33,30.23,11,3,11,0.18
2013-3-9,35.7,35.1,34.3,33.6,33.0,32.1,92,92,92,29.82,29.70,10,1,10,0.47
2013-3-10,31.9,30.2,28.5,25.5,23.8,22.5,79,77,76,29.96,29.92,23,6,23,0.00
2013-3-11,30.2,28.3,25.6,22.2,21.2,18.3,79,74,69,29.83,29.78,13,4,13,0.00
2013-3-22,33.9,33.9,33.9,15.3,15.3,14.3,46,46,46,30.11,30.10,0,0,0,0.00
2013-3-26,38.4,35.5,28.5,23.6,22.6,20.0,70,59,55,30.32,30.31,2,0,6,0.00
2013-3-30,46.7,44.6,42.9,40.6,39.8,39.3,87,83,79,29.89,29.88,5,2,9,0.40
2013-4-1,26.7,24.8,23.3,17.8,17.2,16.4,75,72,68,30.30,30.27,5,4,11,0.00
2013-4-2,35.3,31.8,26.6,19.2,16.3,14.0,66,53,43,30.38,30.35,6,3,16,0.00
2013-4-11,34.8,33.5,31.2,30.6,30.0,28.6,90,87,83,29.74,29.71,7,4,15,0.43
2013-4-12,36.8,35.2,33.9,28.2,27.3,25.8,78,73,68,29.77,29.75,4,2,15,0.30
2013-4-13,36.3,34.3,31.6,26.1,25.0,23.8,74,69,65,29.95,29.91,2,0,15,0.14
2013-4-14,32.6,31.9,31.5,30.0,29.0,28.1,90,89,87,29.69,29.51,7,2,15,0.42
2013-4-17,38.8,34.3,33.0,31.2,29.4,27.5,90,82,71,30.31,29.94,7,2,15,0.02
2013-4-18,32.8,32.2,31.9,30.5,29.7,29.3,91,90,90,29.69,29.60,7,5,16,0.07
2013-4-19,41.3,39.4,37.1,28.4,26.7,21.9,66,60,54,29.82,29.75,11,9,29,0.45
2013-4-21,46.4,43.1,39.1,37.4,34.9,33.1,79,73,70,30.19,30.07,11,9,29,0.01
2013-4-22,42.1,40.4,38.6,30.9,29.9,28.7,72,66,61,30.24,30.18,7,4,29,0.00
2013-4-23,41.7,37.0,29.6,27.3,25.0,20.2,76,62,48,30.19,30.09,6,3,29,0.19
2013-4-24,51.1,43.6,34.8,33.0,30.6,26.6,87,62,43,30.01,29.92,10,5,29,0.01
2013-4-25,41.1,37.9,36.2,30.8,29.8,28.8,77,73,65,30.22,30.19,5,3,29,0.00
2013-5-1,41.0,39.9,38.3,29.9,28.8,27.6,67,64,62,30.37,30.35,5,4,12,0.15
2013-5-2,37.3,36.1,34.8,27.2,26.3,25.7,70,67,64,30.57,30.56,7,6,15,0.00
2013-5-3,37.2,36.0,34.9,32.0,29.7,25.0,85,78,66,30.31,30.19,8,5,16,0.02
2013-5-16,82.0,68.8,52.0,51.1,45.4,34.1,76,46,29,29.88,29.79,3,1,0,0.00
2013-5-17,64.8,58.3,55.1,54.0,50.0,37.2,90,76,36,29.95,29.85,5,1,0,0.19
2013-5-18,74.3,68.3,62.0,64.7,62.4,60.0,93,82,72,29.88,29.83,9,7,21,0.30
2013-5-19,79.2,73.2,64.1,67.3,65.1,61.4,92,76,64,29.69,29.55,8,4,21,0.05
2013-5-20,69.7,65.9,61.5,60.0,58.8,58.1,91,78,68,29.54,29.47,9,3,21,0.65
2013-5-21,52.6,49.9,46.5,50.3,47.8,44.3,93,92,92,29.71,29.53,4,2,15,0.21
2013-5-22,51.0,48.9,46.2,48.1,46.7,44.3,93,92,87,29.86,29.75,4,3,15,0.06
2013-5-23,63.9,58.7,53.3,41.4,38.9,35.8,59,48,40,30.28,30.26,5,3,15,0.05
2013-5-24,66.1,60.8,53.5,51.0,44.0,36.0,85,55,42,30.36,30.17,5,2,15,0.07
2013-5-25,60.2,59.9,59.5,49.9,48.7,47.8,69,66,65,30.22,30.21,6,5,15,0.03
2013-5-26,57.5,56.8,55.9,48.0,43.2,38.1,71,61,50,30.17,30.08,7,3,19,0.00
2013-5-27,61.7,59.4,56.7,53.9,51.8,49.2,84,76,70,29.90,29.82,4,1,15,0.00
2013-5-28,59.6,58.0,56.7,55.8,54.3,52.8,90,87,85,29.73,29.69,1,0,15,0.03
2013-5-29,75.0,72.6,69.1,67.8,65.2,59.6,83,78,68,29.73,29.60,5,1,15,0.00
2013-5-30,70.9,69.3,67.0,63.0,62.2,61.3,85,78,73,29.55,29.46,9,4,20,0.04
2013-5-31,75.8,71.4,67.6,56.9,55.7,53.8,65,58,50,29.48,29.45,7,4,24,0.12
2013-6-1,70.5,62.0,52.2,60.3,54.5,43.8,86,77,64,29.85,29.60,8,3,23,0.03
2013-6-2,60.9,55.9,50.6,45.6,43.1,41.1,71,63,54,30.07,30.05,4,2,15,0.00
2013-6-3,67.0,65.3,60.5,47.2,44.8,42.1,58,48,42,30.04,29.97,1,0,15,0.00
2013-6-4,61.3,57.7,54.9,53.0,50.9,48.8,88,78,69,30.06,30.00,5,1,15,0.14
2013-6-5,58.0,56.7,55.9,54.5,53.1,51.4,91,88,84,29.97,29.94,2,0,7,0.03
2013-6-6,56.0,54.5,50.8,51.6,50.1,48.6,92,85,83,30.02,29.99,2,0,10,0.02
2013-6-7,62.1,59.2,53.3,53.3,51.7,48.9,87,77,68,30.04,29.90,1,0,7,0.00
2013-6-8,69.8,66.4,63.5,54.9,53.6,51.9,73,64,57,29.89,29.85,3,1,10,0.00
2013-6-9,61.4,57.9,55.9,58.7,55.4,53.5,92,91,90,29.80,29.76,4,1,13,0.42
2013-6-10,61.2,60.8,59.8,59.5,58.8,57.5,94,93,92,29.83,29.80,2,1,5,0.00
2013-6-12,63.0,60.1,57.9,60.3,56.0,54.2,93,86,80,29.85,29.78,1,0,0,0.73
2013-6-13,79.4,66.6,54.6,59.9,54.9,49.4,84,67,48,30.06,29.92,2,0,0,0.00
2013-6-14,77.4,67.8,53.7,62.3,57.3,49.9,88,70,58,30.04,29.82,7,2,0,0.00
2013-6-15,77.0,69.2,61.2,68.1,63.2,54.3,91,82,69,29.86,29.79,2,0,0,0.09
2013-6-16,85.6,69.8,57.4,58.1,54.5,50.4,81,61,32,29.88,29.79,3,0,0,0.02
2013-6-17,81.2,69.3,58.7,61.9,56.9,50.8,86,66,45,29.99,29.82,2,0,0,0.00
2013-6-18,63.2,62.9,62.7,54.3,53.9,53.6,73,72,72,30.06,30.06,0,0,2,0.00
2013-6-19,82.9,70.6,56.7,63.6,58.5,53.3,89,68,46,30.01,29.89,3,1,7,0.00
2013-6-20,87.5,83.3,77.2,68.8,66.4,64.1,69,57,49,29.93,29.82,7,2,16,0.00
2013-6-21,77.3,69.4,62.5,67.7,63.9,59.2,93,83,70,30.06,29.82,12,1,48,1.78
2013-6-22,82.1,73.6,66.6,70.5,67.7,63.6,93,83,66,29.91,29.79,12,0,28,0.45
2013-6-23,81.0,75.7,69.9,68.9,66.5,63.6,91,74,59,29.81,29.64,4,1,28,1.68
2013-6-24,81.0,76.6,67.4,69.9,66.7,62.7,88,72,61,29.85,29.75,2,0,28,0.00
2013-6-25,86.1,80.6,73.3,72.6,69.6,66.0,87,70,57,29.74,29.65,3,0,28,0.00
2013-6-26,85.0,80.2,77.9,73.7,72.2,67.5,85,77,61,29.68,29.63,1,0,28,0.00
2013-6-27,82.0,79.6,72.0,67.4,62.4,57.8,66,56,48,29.75,29.73,5,1,28,0.00
2013-6-28,76.2,71.2,67.5,63.7,61.3,59.0,82,71,60,29.76,29.71,9,4,28,0.02
2013-6-29,78.7,73.3,65.3,63.8,61.3,58.1,89,67,53,29.86,29.83,5,2,28,0.17
2013-6-30,81.2,75.7,68.8,58.6,56.5,54.0,64,52,40,30.06,30.04,2,0,28,0.00
2013-7-1,85.0,79.9,64.8,64.6,60.6,55.2,83,53,41,30.15,30.10,2,0,28,0.00
2013-7-2,83.8,80.9,77.9,60.5,56.8,53.0,48,44,40,30.10,30.05,1,0,28,0.00
2013-7-3,82.7,80.6,79.2,59.5,56.2,51.6,48,44,37,30.00,29.98,1,0,28,0.00
2013-7-5,86.2,82.8,79.6,64.4,63.2,61.5,57,52,45,29.79,29.74,6,3,28,0.00
2013-7-6,82.9,81.0,77.6,71.1,68.5,64.5,69,66,60,29.80,29.74,4,0,28,0.00
2013-7-7,89.0,82.1,71.9,73.7,69.8,64.5,79,67,58,29.82,29.75,3,0,9,0.00
2013-7-8,89.3,76.5,63.0,72.2,67.3,60.0,90,74,54,29.96,29.88,1,0,5,0.00
2013-7-9,82.8,73.3,70.7,72.8,67.3,63.1,92,82,70,29.88,29.75,2,1,14,0.84
2013-7-10,82.0,76.6,69.0,63.3,59.8,56.3,78,57,45,30.01,29.88,6,2,17,0.00
2013-7-11,80.5,77.4,63.5,62.1,58.8,56.7,82,53,48,30.05,30.01,1,1,11,0.00
2013-7-12,86.2,79.6,73.6,65.2,62.7,60.3,65,57,48,29.94,29.82,8,4,19,0.00
2013-7-13,73.6,73.4,73.1,67.8,67.2,66.7,82,81,80,29.90,29.89,3,2,11,2.06
2013-7-15,86.4,83.8,77.9,70.8,68.5,65.9,74,60,52,30.16,30.10,3,0,10,0.00
2013-7-16,90.2,85.0,78.5,73.8,72.1,69.5,79,66,52,30.14,30.09,2,0,11,0.00
2013-7-17,91.7,86.4,78.9,73.9,71.9,70.1,80,63,53,30.17,30.03,0,0,11,0.00
2013-7-18,91.3,88.5,81.7,74.0,72.0,70.2,70,59,52,29.92,29.69,3,1,13,0.00
2013-7-19,83.2,77.5,70.9,66.2,63.7,61.1,72,63,51,29.80,29.75,4,1,14,0.00
2013-7-20,79.2,75.2,70.8,64.0,61.6,59.3,76,63,53,29.91,29.86,2,1,6,0.07
2013-7-21,76.5,68.3,61.5,66.9,62.3,57.8,89,81,70,29.90,29.76,1,0,9,0.05
2013-7-22,86.0,75.3,65.3,73.0,61.4,55.0,81,63,52,29.81,29.63,13,2,20,0.00
2013-7-23,78.4,66.6,56.6,58.0,55.0,53.0,89,68,47,29.98,29.81,12,0,14,0.00
2013-7-24,77.1,65.5,55.7,61.0,56.6,52.0,87,74,57,30.04,29.93,5,0,8,0.00
2013-7-25,79.9,70.3,61.6,66.0,61.2,56.0,85,73,56,29.93,29.85,10,0,21,0.00
2013-7-26,69.8,62.6,54.1,62.0,54.5,47.0,88,75,61,30.06,29.86,18,2,25,0.04
2013-7-27,62.0,55.9,49.6,51.0,48.2,46.0,89,76,62,30.06,29.92,10,1,22,0.04
2013-7-28,75.4,61.0,50.2,58.0,50.6,45.0,86,70,49,30.04,29.95,9,1,13,0.00
2013-7-29,76.5,63.0,50.0,60.0,53.9,47.0,92,74,48,30.10,30.03,7,0,12,0.08
2013-7-30,69.7,64.6,60.9,64.0,61.2,58.0,93,88,80,30.06,30.00,1,0,6,0.22
2013-7-31,79.0,67.4,59.8,65.0,58.8,52.0,93,76,44,30.04,29.95,16,0,18,0.00
2013-8-1,79.4,65.1,53.3,61.0,55.0,50.0,88,72,46,30.00,29.82,7,0,9,0.00
2013-8-2,77.8,66.4,55.9,59.0,55.4,52.0,88,70,47,30.00,29.81,8,0,14,0.00
2013-8-3,79.2,63.9,51.8,58.0,52.8,49.0,91,70,42,30.17,30.01,4,0,12,0.00
2013-8-4,74.1,62.0,50.4,58.0,52.6,47.0,90,73,48,30.20,29.97,5,0,9,0.00
2013-8-5,80.2,67.9,60.6,69.0,61.5,55.0,93,81,62,29.99,29.74,8,0,20,0.59
2013-8-6,82.3,66.3,56.1,69.0,60.1,54.0,92,81,59,29.81,29.64,7,0,22,0.20
2013-8-7,79.0,65.4,57.6,59.0,55.6,52.0,93,74,42,29.99,29.75,8,0,12,0.01
2013-8-8,73.9,63.2,52.7,61.0,55.9,50.0,92,78,57,30.02,29.95,2,0,9,0.00
2013-8-9,75.6,65.2,56.1,60.0,55.3,52.0,93,72,48,30.09,29.96,12,0,15,0.00
2013-8-10,76.9,64.9,53.7,58.0,54.5,51.0,90,71,45,30.16,30.05,2,0,9,0.00
2013-8-11,81.6,68.5,59.5,65.0,60.5,55.0,87,76,53,30.05,29.95,1,0,6,0.00
2013-8-12,81.0,68.3,57.9,61.0,57.5,55.0,91,71,44,30.03,29.96,9,1,15,0.00
2013-8-13,79.2,63.3,52.4,56.0,51.9,48.0,92,70,40,30.17,30.04,2,0,11,0.00
2013-8-14,76.8,62.0,49.4,58.0,51.9,47.0,92,72,44,30.17,30.07,1,0,9,0.00
2013-8-15,79.1,64.0,53.0,60.0,55.3,49.0,87,75,51,30.09,30.04,0,0,9,0.00
2013-8-16,78.5,67.4,56.9,60.0,56.3,54.0,90,70,45,30.15,30.09,1,0,10,0.00
2013-8-17,79.7,68.0,56.0,60.0,56.2,52.0,90,68,47,30.16,30.06,11,1,17,0.00
2013-8-18,80.7,70.1,59.4,60.0,57.2,53.0,82,65,46,30.09,29.94,11,1,19,0.00
2013-8-19,84.7,75.0,67.2,70.0,64.4,58.0,77,70,60,29.97,29.83,7,0,14,0.00
2013-8-20,87.1,77.6,70.2,73.0,69.2,65.0,87,76,62,29.85,29.79,11,1,18,0.00
2013-8-21,89.0,77.3,67.6,76.0,69.9,60.0,90,78,61,29.95,29.76,4,0,10,0.00
2013-8-22,88.6,72.6,61.7,60.0,55.8,52.0,81,58,33,30.09,29.96,7,0,12,0.00
2013-8-23,84.8,69.8,54.4,67.0,59.1,50.0,86,70,47,30.11,29.98,9,1,14,0.00
2013-8-24,87.7,78.7,70.4,72.0,68.8,65.0,82,72,57,30.00,29.85,17,4,29,0.00
2013-8-25,93.5,83.9,77.1,76.0,72.8,70.0,78,70,56,29.93,29.85,16,2,20,0.00
2013-8-26,92.5,83.7,76.3,77.0,74.4,72.0,87,74,59,29.90,29.75,10,0,15,0.00
2013-8-27,93.6,81.6,72.8,79.0,74.1,69.0,89,78,62,29.86,29.71,4,0,11,0.00
2013-8-28,89.3,75.9,66.2,74.0,68.5,64.0,93,79,50,29.95,29.86,1,0,9,0.00
2013-8-29,90.6,79.6,69.9,77.0,71.2,67.0,92,77,50,29.94,29.77,6,0,13,0.02
2013-8-30,85.7,74.9,64.9,71.0,66.2,61.0,89,75,55,29.89,29.75,13,1,14,0.00
2013-8-31,85.8,71.3,59.5,70.0,63.6,57.0,93,78,56,29.85,29.65,8,0,24,0.22
2013-9-1,70.6,66.0,57.4,63.0,59.0,52.0,89,78,68,29.95,29.69,14,1,17,0.00
2013-9-2,68.3,58.0,51.3,54.0,51.6,48.0,89,80,60,30.08,29.95,0,0,9,0.00
2013-9-3,77.0,61.8,49.6,61.0,54.3,47.0,92,78,55,30.07,29.96,1,0,9,0.00
2013-9-4,86.8,69.0,55.6,67.0,60.3,53.0,93,76,51,30.11,29.97,7,0,9,0.00
2013-9-5,84.0,69.3,57.2,66.0,59.8,53.0,88,73,49,30.18,30.05,6,0,11,0.00
2013-9-6,88.8,77.8,69.7,69.0,67.4,65.0,89,72,50,30.05,29.80,10,1,19,0.00
2013-9-7,93.8,78.3,66.9,72.0,67.3,59.0,92,71,46,29.97,29.79,6,0,14,0.00
2013-9-8,74.1,66.6,62.0,63.0,58.4,52.0,83,75,68,30.00,29.84,8,0,13,0.01
2013-9-9,89.5,75.4,65.3,75.0,68.9,60.0,92,81,59,29.84,29.57,9,0,14,0.07
2013-9-10,81.4,71.2,64.3,68.0,63.8,59.0,90,78,50,29.94,29.70,1,0,13,0.01
2013-9-11,86.1,71.1,62.3,63.0,57.5,50.0,88,65,34,30.02,29.94,12,1,18,0.00
2013-9-12,74.4,61.8,51.3,56.0,49.2,45.0,89,66,39,30.21,30.02,21,1,21,0.00
2013-9-13,70.8,55.8,42.1,49.0,44.9,39.0,92,69,43,30.26,30.06,3,0,8,0.00
2013-9-14,69.6,58.3,51.9,58.0,50.3,44.0,92,76,52,30.06,29.87,17,0,17,0.55
2013-9-15,67.9,57.3,46.8,57.0,53.0,44.0,93,86,63,30.30,29.86,11,0,16,0.26
2013-9-16,65.8,53.7,38.2,46.0,42.4,36.0,93,68,37,30.40,30.24,9,0,12,0.00
2013-9-17,66.8,58.2,45.6,56.0,50.3,42.0,91,76,65,30.24,29.91,11,2,21,0.00
2013-9-18,74.9,66.7,58.8,68.0,63.5,57.0,94,89,80,29.91,29.64,8,1,14,0.03
2013-9-19,75.1,68.0,61.0,69.0,64.2,54.0,94,88,72,29.75,29.56,9,0,27,0.42
2013-9-20,65.0,57.7,48.6,54.5,51.1,46.0,91,79,61,29.91,29.75,9,1,21,0.14
2013-9-21,64.0,52.1,44.0,49.0,45.6,42.0,93,80,54,29.99,29.90,4,0,21,0.01
2013-9-22,72.3,57.2,43.0,57.0,49.5,41.0,92,77,58,29.95,29.81,10,1,17,0.00
2013-9-23,72.5,62.4,53.5,56.0,51.8,48.0,82,69,52,29.90,29.83,15,2,25,0.00
2013-9-24,74.5,61.1,49.2,57.0,51.8,46.0,90,73,49,29.94,29.88,7,0,15,0.00
2013-9-25,73.7,60.3,48.0,56.0,51.4,45.0,92,74,51,29.94,29.82,4,0,128,0.00
2013-9-26,79.9,67.3,55.7,61.0,56.2,50.0,83,69,52,29.88,29.77,0,0,74,0.00
2013-9-27,82.4,73.4,66.0,65.4,62.0,59.0,87,68,53,29.85,29.73,0,0,0,0.03
2013-9-28,73.3,59.7,47.9,62.0,53.9,44.0,91,81,65,29.89,29.56,0,0,0,0.26
2013-9-29,74.8,59.9,46.6,51.0,45.8,41.0,82,62,39,29.93,29.74,0,0,0,0.00
2013-9-30,77.5,66.8,59.0,55.0,50.5,46.0,67,56,44,29.74,29.54,0,0,0,0.00
2013-10-1,74.8,64.7,51.9,53.0,46.1,39.0,74,53,30,29.94,29.52,0,0,0,0.00
2013-10-2,73.9,57.2,41.6,53.0,43.7,38.0,92,65,32,30.01,29.82,1,0,16,0.01
2013-10-3,57.5,55.0,53.8,56.0,53.0,52.0,94,93,92,29.93,29.82,0,0,0,0.00
2013-10-4,57.7,55.1,52.9,54.0,52.3,51.0,93,90,85,29.97,29.83,0,0,0,0.03
2013-10-5,59.0,53.5,41.4,56.0,49.4,39.0,94,86,74,29.82,29.70,0,0,9,0.05
2013-10-6,51.5,46.3,40.2,49.0,44.0,38.0,93,91,87,29.84,29.67,0,0,11,0.06
2013-10-7,67.0,54.3,42.1,48.8,43.4,40.0,93,69,41,29.96,29.82,0,0,3,0.00
2013-10-8,75.6,63.3,47.9,51.2,46.6,41.0,81,56,39,29.94,29.76,0,0,23,0.00
2013-10-9,74.3,65.7,57.1,54.4,50.7,47.0,72,59,47,29.99,29.87,4,0,37,0.00
2013-10-10,76.3,64.6,49.0,57.8,51.1,45.0,85,63,46,29.99,29.82,0,0,63,0.00
2013-10-11,72.8,66.8,55.0,60.0,53.9,-99.9,85,65,55,29.83,29.56,0,-6,1,0.05
2013-10-12,57.4,49.6,42.8,50.0,42.6,38.0,86,77,66,30.16,29.65,0,0,0,0.01
2013-10-13,61.6,46.9,35.2,41.2,37.4,32.0,91,72,42,30.43,30.17,0,0,1,0.00
2013-10-14,52.9,45.1,37.4,45.0,39.2,34.0,91,81,58,30.40,29.97,0,0,0,0.14
2013-10-15,52.4,48.6,44.1,51.0,46.6,42.0,93,93,91,29.94,29.66,0,0,0,0.01
2013-10-16,56.0,45.3,39.4,42.0,39.3,34.0,93,81,54,29.95,29.84,0,0,0,0.00
2013-10-17,54.8,45.6,40.4,44.0,39.4,35.0,91,79,60,29.87,29.77,0,0,1,0.48
2013-10-18,53.3,42.4,34.4,38.0,34.9,31.0,93,77,48,29.98,29.84,0,0,0,0.08
2013-10-19,43.1,37.9,31.3,40.0,34.4,29.0,90,87,79,29.84,29.69,0,0,0,0.15
2013-10-20,41.6,35.3,30.2,38.0,32.5,28.0,92,89,82,29.89,29.62,0,0,0,0.16
2013-10-21,38.7,33.0,27.2,30.0,24.2,22.0,84,71,58,29.97,29.90,0,0,0,0.00
2013-10-22,40.1,32.6,25.3,31.0,27.6,22.0,90,82,65,30.05,29.97,0,0,0,0.01
2013-10-23,37.4,32.8,30.7,31.0,25.8,21.0,90,76,59,30.13,30.01,0,0,0,0.04
2013-10-24,42.8,37.5,31.5,31.0,28.0,22.0,82,69,57,30.32,30.13,0,0,0,0.00
2013-10-25,56.3,42.4,27.6,42.0,33.5,24.0,87,72,57,30.33,29.78,0,0,0,0.00
2013-10-26,47.7,41.3,34.0,40.0,30.0,27.0,79,65,54,30.11,29.79,0,0,0,0.00
2013-10-27,58.3,41.9,31.2,37.0,30.1,26.0,81,65,43,30.15,29.82,0,0,0,0.00
2013-10-28,44.4,34.8,28.3,28.0,23.6,19.0,81,66,41,30.45,30.16,0,0,0,0.00
2013-10-29,38.3,34.4,27.7,34.0,28.3,23.0,89,78,72,30.44,30.11,0,0,0,0.07
2013-10-30,47.2,43.8,36.5,45.1,41.8,34.0,93,92,89,30.10,29.66,0,0,0,0.08
2013-10-31,46.8,40.9,39.1,45.0,38.7,36.0,93,92,88,29.67,29.40,0,0,0,0.05
2013-11-1,52.1,42.5,36.0,38.2,35.9,32.0,91,78,58,29.85,29.41,1,0,2,0.00
2013-11-2,50.7,39.4,31.3,36.0,31.4,28.0,88,74,52,30.09,29.86,0,0,5,0.00
2013-11-3,54.1,44.8,33.8,36.7,33.0,28.9,87,65,47,30.11,29.86,0,0,6,0.00
2013-11-4,48.0,43.1,33.7,43.0,36.3,30.0,90,78,61,30.14,29.80,0,0,0,0.01
2013-11-5,43.4,36.1,28.1,32.6,28.7,25.0,90,75,54,30.25,30.06,0,0,2,0.00
2013-11-6,37.8,31.8,26.3,29.1,26.6,23.0,91,81,70,30.17,30.05,0,0,1,0.00
2013-11-7,36.7,28.7,21.4,30.0,25.1,19.0,90,86,77,30.26,30.17,0,0,0,0.00
2013-11-8,43.2,34.0,20.8,36.0,27.2,18.0,91,77,60,30.21,29.60,0,0,1,0.00
2013-11-9,41.9,39.1,34.5,37.0,32.7,27.0,88,78,66,30.20,29.64,0,0,0,0.00
2013-11-10,41.7,36.2,29.2,31.0,28.5,23.0,81,74,62,30.33,30.11,0,0,0,0.00
2013-11-11,35.6,22.8,13.4,30.0,12.0,6.0,80,64,50,30.76,30.14,0,0,0,0.00
2013-11-12,28.3,19.3,10.0,14.0,9.4,5.0,81,67,47,30.83,30.47,0,0,0,0.00
2013-11-13,50.8,36.2,23.3,34.0,24.7,13.0,76,64,51,30.46,29.88,0,0,1,0.00
2013-11-14,52.4,39.9,33.7,39.0,32.7,29.0,87,76,60,29.87,29.74,0,0,0,0.00
2013-11-15,53.9,42.2,31.1,39.0,34.3,28.0,89,75,55,29.84,29.61,0,0,0,0.00
2013-11-16,47.8,44.1,40.6,46.0,40.6,35.0,93,88,70,29.62,29.22,0,0,0,0.01
2013-11-17,42.8,38.4,30.7,40.0,34.3,24.0,93,85,75,29.83,29.28,0,0,0,0.00
2013-11-18,34.3,28.2,21.2,23.0,20.2,17.0,84,72,60,30.29,29.83,0,0,0,0.00
2013-11-19,45.9,34.4,20.0,31.0,24.7,17.0,87,69,50,30.28,29.90,0,0,0,0.00
2013-11-20,45.0,41.5,37.1,33.0,30.6,27.0,84,66,53,30.03,29.87,0,0,8,0.35
2013-11-21,37.2,28.9,22.0,34.0,23.1,13.0,89,79,66,30.55,30.03,0,0,1,0.00
2013-11-22,33.4,23.4,9.5,14.5,10.3,1.0,83,59,37,30.69,30.48,0,0,1,0.00
2013-11-23,17.3,10.7,4.8,3.3,0.6,-1.0,79,65,47,30.90,30.69,0,0,1,0.00
2013-11-24,31.1,19.6,5.1,16.0,9.1,0.0,81,65,51,30.77,29.99,0,0,1,0.00
2013-11-25,37.2,32.1,27.6,28.0,23.0,16.0,83,69,59,30.11,29.91,0,0,0,0.00
2013-11-26,28.0,19.0,10.7,19.0,7.1,3.0,73,60,49,30.43,30.10,0,0,0,0.00
2013-11-27,23.2,15.6,4.5,10.0,6.4,0.0,84,68,55,30.44,30.11,0,0,0,0.00
2013-11-28,26.4,20.3,9.0,14.0,10.6,4.0,82,67,54,30.55,30.11,0,0,0,0.00
2013-11-29,30.9,21.0,6.3,20.0,13.2,2.0,84,73,58,30.55,30.16,0,0,0,0.00
2013-11-30,38.8,30.6,21.6,27.0,23.0,18.0,87,74,61,30.20,30.05,0,0,0,0.00
2013-12-1,33.6,24.7,15.8,25.0,19.4,13.0,88,81,68,30.22,29.95,0,0,0,0.00
2013-12-2,36.4,31.6,24.8,32.0,28.1,21.0,92,87,79,29.94,29.59,0,0,0,0.08
2013-12-3,34.2,33.1,30.9,32.0,31.3,29.0,93,93,92,29.81,29.59,0,0,0,0.06
2013-12-4,30.6,26.0,11.8,29.0,23.6,7.0,93,90,81,29.79,29.49,0,0,0,0.00
2013-12-5,11.3,4.0,-3.7,7.0,-2.1,-9.0,81,76,69,30.40,29.71,0,0,0,0.00
2013-12-6,2.9,-5.4,-11.6,-6.0,-11.4,-17.0,80,75,66,30.73,30.41,0,0,0,0.00
2013-12-7,-0.8,-8.4,-15.7,-10.0,-14.8,-21.0,79,74,62,30.82,30.67,0,0,0,0.00
2013-12-8,11.0,4.0,-9.0,6.0,-0.6,-14.0,85,81,78,30.66,30.11,0,0,0,0.00
2013-12-9,7.5,-1.6,-7.4,4.0,-7.5,-14.0,85,76,67,30.17,29.94,0,0,0,0.00
2013-12-10,6.8,3.5,-1.5,3.0,-2.4,-7.0,84,77,66,30.37,29.84,0,0,1,0.00
2013-12-11,-0.3,-5.5,-13.3,-7.0,-12.8,-19.0,77,71,62,30.65,30.39,0,0,0,0.00
2013-12-12,17.3,9.1,-0.5,9.0,2.6,-6.0,84,75,64,30.39,30.21,0,0,0,0.00
2013-12-13,14.4,11.2,7.8,10.0,5.5,3.0,85,77,70,30.36,30.19,0,0,0,0.00
2013-12-14,13.5,7.6,-2.5,6.0,2.1,-9.0,82,78,71,30.35,30.15,0,0,0,0.00
2013-12-15,2.4,-1.1,-3.6,-8.0,-9.3,-11.0,76,69,57,30.24,30.18,0,0,0,0.00
2013-12-16,23.3,8.7,-0.5,20.0,3.2,-9.0,87,78,67,30.20,29.95,0,0,0,0.00
2013-12-17,31.1,21.0,3.5,27.0,14.7,-1.0,86,77,62,30.14,29.92,0,0,0,0.00
2013-12-18,32.5,21.7,2.2,24.0,15.7,-2.0,86,78,65,30.10,29.68,0,0,0,0.07
2013-12-19,24.0,15.7,13.2,19.0,9.5,6.0,83,76,70,30.12,29.84,0,0,0,0.00
2013-12-20,16.7,13.6,8.7,11.0,8.8,5.0,84,81,76,30.09,29.90,0,0,0,0.00
2013-12-21,20.1,16.7,13.8,13.0,11.3,10.0,83,79,74,30.05,29.91,0,0,0,0.00
2013-12-22,16.3,12.4,4.5,11.0,7.5,0.0,83,81,77,30.30,30.00,0,0,0,0.00
2013-12-23,4.2,-3.0,-12.8,-1.0,-9.7,-19.0,80,73,65,30.60,30.30,0,0,0,0.00
2013-12-24,10.3,-2.6,-18.4,4.0,-9.5,-24.0,83,73,54,30.57,30.21,0,0,0,0.00
2013-12-25,24.8,15.0,8.6,21.0,10.6,5.0,87,82,74,30.22,30.10,0,0,0,0.00
2013-12-26,24.7,16.9,7.8,20.0,12.9,4.0,87,84,81,30.21,30.12,0,0,0,0.00
2013-12-27,38.3,27.0,6.7,30.0,22.7,3.0,90,84,71,30.20,29.91,0,0,0,0.22
2013-12-28,43.1,29.5,15.3,31.0,25.0,9.0,92,84,63,30.06,29.66,0,0,0,0.33
2013-12-29,14.6,-3.8,-16.8,9.0,-12.5,-23.0,77,66,54,30.38,30.07,0,0,0,0.00
2013-12-30,1.5,-7.7,-18.7,-5.0,-13.3,-24.0,80,76,74,30.38,30.28,0,0,0,0.00
2013-12-31,-4.0,-9.7,-15.7,-10.0,-15.6,-21.0,79,75,68,30.53,30.30,0,0,0,0.00
2014-1-1,-0.5,-4.8,-10.8,-9.0,-12.7,-18.0,73,69,65,30.60,30.51,0,0,0,0.00
2014-1-2,1.3,-7.6,-14.5,-11.0,-16.5,-21.0,75,65,49,30.61,30.46,0,0,0,0.00